Вернуться в каталог

STARLINK-2467

АктивенСвязьVLEO
NORAD 48126·PAYLOAD·🇺🇸 United States

Запущен Apr 7, 2021 с Cape Canaveral Space Force Station

Loading…

Ближайшие Пролёты (ближайшие 24 часа)

TLE

СвежийSource: CelesTrak SupGP

Эпоха: Sep 14, 2026, 20:14 UTC

1 48126C 21027AL  26257.84354167 -.00008885  00000+0 -28568-3 0  2572
2 48126  53.1585 352.1896 0001201  82.5595 345.4424 15.31711886    10

Отслеживайте STARLINK-2467 в реальном времени с AllMySat

Download on the App Store